TimeCST,TemperatureF,Dew PointF,Humidity,Sea Level PressureIn,VisibilityMPH,Wind Direction,Wind SpeedMPH,Gust SpeedMPH,PrecipitationIn,Events,Conditions,WindDirDegrees,DateUTC
12:12 AM,26.6,17.6,69,30.12,10.0,WNW,29.9,39.1,N/A,,Overcast,300,2012-11-23 06:12:00
12:33 AM,24.8,17.6,74,30.13,10.0,NW,19.6,32.2,N/A,,Overcast,310,2012-11-23 06:33:00
12:53 AM,24.8,17.6,74,30.13,10.0,WNW,24.2,33.4,N/A,,Overcast,300,2012-11-23 06:53:00
1:12 AM,24.8,15.8,69,30.14,10.0,WNW,32.2,42.6,N/A,,Overcast,300,2012-11-23 07:12:00
1:53 AM,23.0,15.8,74,30.16,10.0,NW,26.5,38.0,N/A,,Overcast,310,2012-11-23 07:53:00
2:12 AM,23.0,15.8,74,30.16,10.0,NW,28.8,41.4,N/A,,Overcast,310,2012-11-23 08:12:00
2:32 AM,23.0,15.8,74,30.18,10.0,NW,28.8,39.1,N/A,,Overcast,310,2012-11-23 08:32:00
2:53 AM,21.2,14.0,74,30.19,10.0,NW,34.5,43.7,N/A,,Mostly Cloudy,310,2012-11-23 08:53:00
3:12 AM,21.2,14.0,74,30.19,10.0,NW,26.5,40.3,N/A,,Scattered Clouds,310,2012-11-23 09:12:00
3:32 AM,21.2,12.2,68,30.20,10.0,NW,28.8,41.4,N/A,,Mostly Cloudy,310,2012-11-23 09:32:00
3:53 AM,21.2,12.2,68,30.21,10.0,WNW,26.5,40.3,N/A,,Overcast,300,2012-11-23 09:53:00
4:12 AM,19.4,12.2,74,30.21,10.0,NW,27.6,36.8,N/A,,Overcast,310,2012-11-23 10:12:00
4:32 AM,19.4,12.2,74,30.22,10.0,NW,21.9,35.7,N/A,,Mostly Cloudy,310,2012-11-23 10:32:00
4:53 AM,19.4,12.2,74,30.23,10.0,NW,32.2,40.3,N/A,,Mostly Cloudy,310,2012-11-23 10:53:00
5:12 AM,21.2,14.0,74,30.24,10.0,NW,26.5,35.7,N/A,Snow,Light Snow,310,2012-11-23 11:12:00
5:32 AM,19.4,12.2,74,30.25,10.0,NW,25.3,32.2,N/A,Snow,Light Snow,310,2012-11-23 11:32:00
5:53 AM,19.4,14.0,80,30.25,7.0,NW,26.5,35.7,N/A,Snow,Light Snow,310,2012-11-23 11:53:00
6:12 AM,19.4,12.2,74,30.26,10.0,NW,28.8,36.8,N/A,Snow,Light Snow,310,2012-11-23 12:12:00
6:32 AM,19.4,12.2,74,30.26,10.0,NW,26.5,42.6,N/A,Snow,Light Snow,310,2012-11-23 12:32:00
6:53 AM,19.4,12.2,74,30.28,10.0,NW,26.5,38.0,N/A,,Overcast,310,2012-11-23 12:53:00
7:12 AM,19.4,12.2,74,30.28,10.0,NW,28.8,34.5,N/A,Snow,Light Snow,310,2012-11-23 13:12:00
7:32 AM,19.4,12.2,74,30.30,10.0,NW,24.2,36.8,N/A,Snow,Light Snow,310,2012-11-23 13:32:00
7:53 AM,17.6,12.2,79,30.30,10.0,NW,25.3,32.2,N/A,,Overcast,310,2012-11-23 13:53:00
8:12 AM,17.6,12.2,79,30.31,10.0,NW,24.2,33.4,N/A,Snow,Light Snow,310,2012-11-23 14:12:00
8:32 AM,19.4,12.2,74,30.32,10.0,NW,25.3,33.4,N/A,Snow,Light Snow,310,2012-11-23 14:32:00
8:53 AM,19.4,12.2,74,30.33,10.0,NW,23.0,34.5,N/A,Snow,Light Snow,320,2012-11-23 14:53:00
9:12 AM,19.4,12.2,74,30.33,10.0,NW,26.5,36.8,N/A,Snow,Light Snow,310,2012-11-23 15:12:00
9:33 AM,19.4,12.2,74,30.34,10.0,NW,29.9,34.5,N/A,Snow,Light Snow,310,2012-11-23 15:33:00
9:52 AM,19.4,12.2,74,30.35,10.0,NW,27.6,33.4,N/A,Snow,Light Snow,310,2012-11-23 15:52:00
10:12 AM,21.2,12.2,68,30.36,10.0,NW,24.2,31.1,N/A,Snow,Light Snow,310,2012-11-23 16:12:00
10:33 AM,21.2,12.2,68,30.36,10.0,NW,24.2,31.1,N/A,,Mostly Cloudy,310,2012-11-23 16:33:00
10:52 AM,23.0,12.2,63,30.37,10.0,NW,21.9,32.2,N/A,,Scattered Clouds,310,2012-11-23 16:52:00
11:12 AM,23.0,12.2,63,30.37,10.0,NW,19.6,28.8,N/A,,Clear,310,2012-11-23 17:12:00
11:33 AM,24.8,12.2,59,30.37,10.0,NW,21.9,29.9,N/A,,Clear,310,2012-11-23 17:33:00
11:52 AM,24.8,12.2,59,30.37,10.0,NW,24.2,31.1,N/A,,Scattered Clouds,320,2012-11-23 17:52:00
12:13 PM,24.8,12.2,59,30.37,10.0,NW,19.6,28.8,N/A,,Scattered Clouds,310,2012-11-23 18:13:00
12:33 PM,24.8,12.2,59,30.37,10.0,NW,20.7,29.9,N/A,,Scattered Clouds,310,2012-11-23 18:33:00
12:52 PM,24.8,12.2,59,30.37,10.0,NW,20.7,28.8,N/A,,Scattered Clouds,310,2012-11-23 18:52:00
1:13 PM,24.8,12.2,59,30.36,10.0,NW,19.6,24.2,N/A,,Scattered Clouds,310,2012-11-23 19:13:00
1:33 PM,26.6,12.2,55,30.36,10.0,NW,23.0,28.8,N/A,,Scattered Clouds,320,2012-11-23 19:33:00
1:52 PM,26.6,12.2,55,30.36,10.0,NW,19.6,26.5,N/A,,Scattered Clouds,320,2012-11-23 19:52:00
2:13 PM,26.6,12.2,55,30.36,10.0,NNW,23.0,28.8,N/A,,Scattered Clouds,330,2012-11-23 20:13:00
2:33 PM,26.6,12.2,55,30.36,10.0,NW,19.6,26.5,N/A,,Scattered Clouds,310,2012-11-23 20:33:00
2:52 PM,26.6,12.2,55,30.36,10.0,NW,20.7,25.3,N/A,,Scattered Clouds,320,2012-11-23 20:52:00
3:13 PM,26.6,12.2,55,30.37,10.0,NW,18.4,-,N/A,,Clear,320,2012-11-23 21:13:00
3:33 PM,24.8,12.2,59,30.37,10.0,NW,18.4,26.5,N/A,,Clear,310,2012-11-23 21:33:00
3:52 PM,24.8,12.2,59,30.37,10.0,NW,16.1,24.2,N/A,,Clear,310,2012-11-23 21:52:00
4:13 PM,23.0,12.2,63,30.38,10.0,NW,16.1,23.0,N/A,,Clear,320,2012-11-23 22:13:00
4:32 PM,23.0,12.2,63,30.38,10.0,NW,15.0,19.6,N/A,,Clear,310,2012-11-23 22:32:00
4:53 PM,21.2,12.2,68,30.37,10.0,NW,13.8,-,N/A,,Clear,320,2012-11-23 22:53:00
5:12 PM,21.2,12.2,68,30.37,10.0,NW,11.5,-,N/A,,Clear,310,2012-11-23 23:12:00
5:32 PM,19.4,12.2,74,30.37,10.0,NW,11.5,-,N/A,,Clear,310,2012-11-23 23:32:00
5:52 PM,19.4,12.2,74,30.37,10.0,NW,9.2,-,N/A,,Clear,320,2012-11-23 23:52:00
6:33 PM,19.4,12.2,74,30.37,10.0,NW,10.4,-,N/A,,Clear,310,2012-11-24 00:33:00
6:52 PM,17.6,12.2,79,30.37,10.0,NW,9.2,-,N/A,,Clear,310,2012-11-24 00:52:00
7:12 PM,17.6,12.2,79,30.37,10.0,NW,10.4,-,N/A,,Clear,310,2012-11-24 01:12:00
7:33 PM,17.6,12.2,79,30.37,10.0,NNW,8.1,-,N/A,,Clear,330,2012-11-24 01:33:00
7:52 PM,15.8,12.2,86,30.37,10.0,NW,8.1,-,N/A,,Clear,320,2012-11-24 01:52:00
8:12 PM,15.8,10.4,79,30.37,10.0,NW,8.1,-,N/A,,Clear,320,2012-11-24 02:12:00
8:33 PM,15.8,10.4,79,30.37,10.0,NW,6.9,-,N/A,,Clear,320,2012-11-24 02:33:00
8:52 PM,15.8,10.4,79,30.36,10.0,NW,5.8,-,N/A,,Clear,310,2012-11-24 02:52:00
9:12 PM,14.0,10.4,86,30.35,10.0,NNW,5.8,-,N/A,,Clear,330,2012-11-24 03:12:00
9:33 PM,14.0,10.4,86,30.35,10.0,NW,6.9,-,N/A,,Clear,320,2012-11-24 03:33:00
9:52 PM,14.0,10.4,86,30.35,10.0,NW,6.9,-,N/A,,Clear,320,2012-11-24 03:52:00
10:12 PM,12.2,10.4,92,30.34,10.0,NW,4.6,-,N/A,,Clear,320,2012-11-24 04:12:00
10:33 PM,12.2,10.4,92,30.35,10.0,NW,5.8,-,N/A,,Clear,310,2012-11-24 04:33:00
10:52 PM,12.2,10.4,92,30.34,10.0,NW,6.9,-,N/A,,Clear,320,2012-11-24 04:52:00
11:12 PM,12.2,8.6,85,30.34,10.0,NW,5.8,-,N/A,,Clear,320,2012-11-24 05:12:00
11:33 PM,10.4,8.6,92,30.34,10.0,WNW,3.5,-,N/A,,Clear,300,2012-11-24 05:33:00
11:52 PM,10.4,8.6,92,30.34,10.0,WNW,4.6,-,N/A,,Clear,290,2012-11-24 05:52:00